This demonstration page uses our WeatherBlox Daily Observations layout. Learn more.

Left ArrowRight Arrow

39.92423, -83.80882

Hourly Observations for June 12, 2021

Temp ( °F °C ) Dew Point ( °F °C ) Humidity (%) Winds ( mph kmh ) Pressure ( in mb ) Visibility ( mi km ) Precip ( " mm )
12:56 am 00:56 Clear 68 20 68 20 100 100 N N/A 29.83 1010 10 16 N/A
1:56 am 01:56 Clear 64 18 N/A N/A ESE 3 6 29.81 1010 10 16 N/A
2:56 am 02:56 Clear 64 18 N/A N/A N 5 7 29.82 1010 10 16 N/A
3:56 am 03:56 Clear 64 18 N/A N/A NE 3 6 29.82 1010 10 16 N/A
4:56 am 04:56 Clear 64 18 N/A N/A N N/A 29.82 1010 10 16 N/A
5:56 am 05:56 Cloudy 66 19 N/A N/A N N/A 29.84 1011 9 14 N/A
6:56 am 06:56 Hazy 66 19 N/A N/A WNW 5 7 29.85 1011 5 8 N/A
7:56 am 07:56 Mostly Cloudy with Haze 70 21 N/A N/A N 5 7 29.86 1011 5 8 N/A
8:56 am 08:56 Mostly Sunny 74 23.3 74 23.3 100 100 NNW 7 11 29.87 1011 9 14 N/A
9:56 am 09:56 Sunny 79 26.1 73 22.8 82 82 N 6 9 29.86 1011 10 16 N/A
10:56 am 10:56 Sunny 81 27.2 70 21.1 69 69 N 7 11 29.86 1011 10 16 N/A
11:56 am 11:56 Mostly Sunny 83 28.3 71 21.7 67 67 NE 6 9 29.86 1011 10 16 N/A
12:56 pm 12:56 Sunny 85 29.4 71 21.7 63 63 NE 8 13 29.85 1011 10 16 N/A
1:56 pm 13:56 Sunny 85 29.4 69 20.6 59 59 E 9 15 29.85 1011 10 16 N/A
2:56 pm 14:56 Sunny 87 30.6 69 20.6 55 55 NNE 7 11 29.85 1011 10 16 N/A
3:56 pm 15:56 Mostly Cloudy 84 28.9 69 20.6 61 61 NE 7 11 29.84 1011 10 16 N/A
4:56 pm 16:56 Mostly Cloudy 88 31.1 70 21.1 55 55 NW 6 9 29.83 1010 10 16 N/A
5:56 pm 17:56 Cloudy 87 30.6 70 21.1 57 57 ENE 7 11 29.81 1010 10 16 N/A
6:56 pm 18:56 Sunny 86 30 69 20.6 57 57 N N/A 29.82 1010 10 16 N/A
7:56 pm 19:56 Sunny 84 28.9 72 22.2 67 67 N N/A 29.82 1010 10 16 N/A
8:56 pm 20:56 Sunny 81 27.2 75 23.9 82 82 N N/A 29.83 1010 10 16 N/A
9:56 pm 21:56 Clear 80 26.7 70 21.1 71 71 S 3 6 29.83 1010 10 16 N/A
10:56 pm 22:56 Clear 76 24.4 76 24.4 100 100 SSE 5 7 29.85 1011 10 16 N/A
11:56 pm 23:56 Clear 75 23.9 75 23.9 100 100 N N/A 29.88 1012 10 16 N/A

Powered by AerisWeather